• Join FlightAware (Why Join?)
  • Login
  • US Flag 
09:08PM EDT


 

Airport Tracker/Info


-or-


 

Live Flight TrackerFlight Track Log ✈ RPA3436 ✈ 10-Jul-2013 ✈ KCHS - KDCA

Flight Track Log - Related Links

Times and Time Zones

All times are in EDT time to prevent confusion due to time zone crossing. See the RPA3436 flight status page for this flight to view local times or setup timezone preferences in your user account.

Time Position Orientation Groundspeed Altitude Reporting Facility
EDT Latitude Longitude Course Direction KTS MPH feet Rate Location/Type
07:51AM 32.8644 -80.0114 13° North 197 227 2,900  Level Jacksonville Center
07:52AM 33.1623 -79.9500 North  Level FlightAware Approximate
07:52AM 32.9328 -79.9919 13° North 263 303 5,500  Level Jacksonville Center
07:53AM 33.2564 -79.9254 North  Level FlightAware Approximate
07:53AM 33.0075 -79.9747 11° North 275 316 8,400  Level Jacksonville Center
07:54AM 33.3482 -79.8925 23° Northeast  Level FlightAware Approximate
07:54AM 33.0839 -79.9350 24° Northeast 280 322 10,800  Level Jacksonville Center
07:55AM 33.4422 -79.8682 North  Level FlightAware Approximate
07:55AM 33.1661 -79.8875 26° Northeast 296 341 13,100  Level Jacksonville Center
07:56AM 33.5362 -79.8421 13° North  Level FlightAware Approximate
07:56AM 33.2486 -79.8425 25° Northeast 316 364 15,300  Level Jacksonville Center
07:57AM 33.3350 -79.7925 26° Northeast 323 372 17,300 1,680 Climbing Jacksonville Center
07:58AM 33.4278 -79.7419 24° Northeast 345 397 18,700 1,620 Climbing Jacksonville Center
07:59AM 33.5225 -79.6886 25° Northeast 357 411 20,600 1,680 Climbing Jacksonville Center
08:00AM 33.6169 -79.6353 25° Northeast 362 417 22,100 1,500 Climbing Jacksonville Center
08:01AM 33.7158 -79.5792 25° Northeast 374 430 23,600 1,440 Climbing Jacksonville Center
08:02AM 33.8144 -79.5231 25° Northeast 374 430 25,000 1,200 Climbing Jacksonville Center
08:03AM 33.9150 -79.4667 25° Northeast 384 442 26,100 1,260 Climbing Jacksonville Center
08:04AM 34.0036 -79.4181 24° Northeast 389 448 27,600 1,380 Climbing Jacksonville Center
08:05AM 34.1956 -79.3078 25° Northeast 394 453 30,100 1,080 Climbing Washington Center
08:07AM 34.3144 -79.2353 27° Northeast 417 480 31,000 360 Climbing Washington Center
08:08AM 34.4397 -79.1653 25° Northeast 417 480 31,000  Level Washington Center
08:09AM 34.5481 -79.1044 25° Northeast 412 474 31,000  Level Washington Center
08:10AM 34.6519 -79.0433 26° Northeast 412 474 31,000  Level Washington Center
08:11AM 34.7561 -78.9794 27° Northeast 412 474 31,000  Level Washington Center
08:12AM 34.8622 -78.9181 25° Northeast 412 474 31,000  Level Washington Center
08:13AM 34.9892 -78.8472 25° Northeast 412 474 31,000  Level Washington Center
08:14AM 35.0953 -78.7828 26° Northeast 412 474 31,000  Level Washington Center
08:15AM 35.2014 -78.7211 25° Northeast 412 474 31,000 -180 Level Washington Center
08:16AM 35.3050 -78.6614 25° Northeast 412 474 30,700 -780 Descending Washington Center
08:17AM 35.4108 -78.5992 26° Northeast 419 482 29,500 -1,200 Descending Washington Center
08:18AM 35.5042 -78.5414 27° Northeast 414 476 28,400 -1,200 Descending Washington Center
08:19AM 35.6144 -78.4767 26° Northeast 426 490 27,200 -720 Descending Washington Center
08:20AM 35.7158 -78.4164 26° Northeast 426 490 27,000 -120 Descending Washington Center
08:21AM 35.8194 -78.3561 25° Northeast 416 479 27,000  Level Washington Center
08:22AM 35.9317 -78.2881 26° Northeast 422 486 27,000  Level Washington Center
08:23AM 36.0458 -78.2200 26° Northeast 434 499 27,000  Level Washington Center
08:24AM 36.1600 -78.1517 26° Northeast 439 505 27,000  Level Washington Center
08:25AM 36.2742 -78.0808 27° Northeast 445 512 27,000  Level Washington Center
08:26AM 36.3861 -78.0122 26° Northeast 450 518 27,000  Level Washington Center
08:27AM 36.5108 -77.9383 25° Northeast 450 518 27,000 -240 Level Washington Center
08:28AM 36.6206 -77.8667 28° Northeast 450 518 26,600 -720 Descending Washington Center
08:29AM 36.7325 -77.8000 26° Northeast 450 518 25,600 -1,200 Descending Washington Center
08:30AM 36.8422 -77.7306 27° Northeast 450 518 24,300 -1,320 Descending Washington Center
08:31AM 36.9497 -77.6658 26° Northeast 438 504 23,000 -1,200 Descending Washington Center
08:32AM 37.0572 -77.6011 26° Northeast 430 495 22,000 -540 Descending Washington Center
08:33AM 37.1606 -77.5333 28° Northeast 425 489 22,000  Level Washington Center
08:34AM 37.2681 -77.4683 26° Northeast 425 489 22,000  Level Washington Center
08:35AM 37.3753 -77.4031 26° Northeast 425 489 22,000  Level Washington Center
08:36AM 37.4828 -77.3347 27° Northeast 425 489 22,000 -300 Level Washington Center
08:37AM 37.5958 -77.3033 12° North 420 483 21,500 -1,140 Descending Washington Center
08:38AM 37.7108 -77.2769 10° North 415 478 19,800 -1,920 Descending Washington Center
08:39AM 37.8239 -77.2533 North 415 478 17,700 -2,160 Descending Washington Center
08:40AM 37.9328 -77.2294 10° North 405 466 15,600 -2,040 Descending Washington Center
08:41AM 38.0331 -77.2078 10° North 383 441 13,600 -1,920 Descending Washington Center
08:42AM 38.1356 -77.1914 North 371 427 11,700 -1,860 Descending Washington Center
08:43AM 38.2339 -77.1672 11° North 361 415 10,000 -900 Descending Washington Center
08:44AM 38.3342 -77.1508 North 361 415 10,000  Level Washington Center
08:45AM 38.4178 -77.1339 North 331 381 10,000  Level Washington Center
08:46AM 38.4992 -77.1144 11° North 308 354 10,000 -780 Level Washington Center
08:47AM 38.5808 -77.0975 North 303 349 8,500 -1,680 Descending Washington Center
08:48AM 38.6644 -77.0781 10° North 298 343 6,700 -1,320 Descending Washington Center
08:49AM 38.7397 -77.0633 North 285 328 6,000 -420 Descending Washington Center
08:50AM 38.8000 -77.0833 346° North 261 300 6,000  Level Potomac TRACON
08:51AM 38.8500 -77.1333 322° Northwest 207 238 6,000 -240 Level Potomac TRACON
08:52AM 38.8833 -77.1833 311° West 199 229 5,600 -480 Descending Potomac TRACON
08:53AM 38.9167 -77.2333 311° West 194 223 5,100 -300 Descending Potomac TRACON
08:54AM 38.9667 -77.2833 322° Northwest 196 226 5,000 -60 Descending Potomac TRACON
08:55AM 39.0000 -77.2833 360° North 223 257 5,000 -600 Level Potomac TRACON
08:55AM 39.0333 -77.2167 57° Northeast 231 266 3,900 -960 Descending Potomac TRACON
08:56AM 38.9833 -77.1667 142° Southeast 191 220 3,100 -840 Descending Potomac TRACON